Weather History for KCIU - November, 2011

Change the Weather History Date:

Tuesday, November 8, 2011

  Actual Average Record
Temperature  
Mean Temperature 35 °F -  
Max Temperature 42 °F 42 °F 56 °F (1983)
Min Temperature 28 °F 24 °F 3 °F (1991)
Degree Days  
Heating Degree Days 30    
Moisture  
Dew Point 31 °F    
Average Humidity 80    
Maximum Humidity 87    
Minimum Humidity 65    
Precipitation  
Precipitation 0.00 in - - ()
Sea Level Pressure  
Sea Level Pressure 30.19 in    
Wind  
Wind Speed 4 mph (ENE)    
Max Wind Speed 7 mph    
Max Gust Speed -    
Visibility 10 miles    
Events      
Averages and records for this station are not official NWS values.
T = Trace of Precipitation, MM = Missing Value Source: NWS Daily Summary

Daily Weather History Graph

Daily Weather History Graph

Search for Another Location

Airport or City:

Trip Planner

Search our weather history database for the weather conditions in past years. The results will help you decide how hot, cold, wet, or windy it might be!

Date:

Astronomy

Nov. 08, 2011 Rise Set
Actual Time 7:28 AM EST 5:13 PM EST
Civil Twilight 6:56 AM EST 5:45 PM EST
Nautical Twilight 6:20 AM EST 6:21 PM EST
Astronomical Twilight 5:45 AM EST 6:56 PM EST
Moon 3:56 PM EST (11/8) 5:22 AM EST (11/8)
Length of Visible Light 10h 49m
Length of Day
9h 45m
Waxing Gibbous, 96% of the Moon is Illuminated
Nov 8
Waxing Gibbous
Nov 10
Full
Nov 18
Last Quarter
Nov 25
New
Dec 2
First Quarter

Hourly Weather History & Observations

Time (EST) Temp. Windchill Dew Point Humidity Pressure Visibility Wind Dir Wind Speed Gust Speed Precip Events Conditions
12:15 AM 32.0 °F 25.6 °F 26.6 °F 80% 30.19 in 10.0 mi WNW 6.9 mph - N/A   Clear
12:35 AM 32.0 °F 28.7 °F 26.6 °F 80% 30.18 in 10.0 mi West 3.5 mph - N/A   Clear
12:55 AM 30.2 °F - 24.8 °F 80% 30.18 in 10.0 mi Calm Calm - N/A   Clear
1:15 AM 28.4 °F 24.6 °F 24.8 °F 86% 30.18 in 10.0 mi WSW 3.5 mph - N/A   Clear
2:15 AM 33.8 °F 27.7 °F 28.4 °F 81% 30.18 in 10.0 mi WSW 6.9 mph - N/A   Clear
2:35 AM 32.0 °F 26.4 °F 28.4 °F 87% 30.18 in 10.0 mi West 5.8 mph - N/A   Clear
2:55 AM 33.8 °F 28.6 °F 28.4 °F 81% 30.19 in 10.0 mi West 5.8 mph - N/A   Clear
3:15 AM 33.8 °F 30.8 °F 28.4 °F 81% 30.18 in 10.0 mi West 3.5 mph - N/A   Clear
3:55 AM 33.8 °F 29.6 °F 28.4 °F 81% 30.18 in 10.0 mi WSW 4.6 mph - N/A   Clear
4:15 AM 33.8 °F 30.8 °F 28.4 °F 81% 30.20 in 10.0 mi SSW 3.5 mph - N/A   Mostly Cloudy
4:35 AM 33.8 °F 28.6 °F 28.4 °F 81% 30.21 in 10.0 mi SW 5.8 mph - N/A   Scattered Clouds
4:55 AM 33.8 °F 28.6 °F 28.4 °F 81% 30.21 in 10.0 mi WSW 5.8 mph - N/A   Scattered Clouds
5:15 AM 33.8 °F 29.6 °F 28.4 °F 81% 30.21 in 10.0 mi West 4.6 mph - N/A   Mostly Cloudy
5:35 AM 33.8 °F 29.6 °F 28.4 °F 81% 30.21 in 10.0 mi WSW 4.6 mph - N/A   Overcast
5:55 AM 33.8 °F 30.8 °F 28.4 °F 81% 30.21 in 10.0 mi WSW 3.5 mph - N/A   Overcast
6:15 AM 33.8 °F - 28.4 °F 81% 30.21 in 10.0 mi Calm Calm - N/A   Overcast
6:35 AM 33.8 °F 30.8 °F 28.4 °F 81% 30.21 in 10.0 mi SW 3.5 mph - N/A   Overcast
6:55 AM 33.8 °F 29.6 °F 28.4 °F 81% 30.21 in 10.0 mi WSW 4.6 mph - N/A   Overcast
7:35 AM 35.6 °F 32.8 °F 30.2 °F 81% 30.23 in 10.0 mi SW 3.5 mph - N/A   Overcast
7:55 AM 35.6 °F 31.7 °F 30.2 °F 81% 30.22 in 10.0 mi WSW 4.6 mph - N/A   Overcast
8:15 AM 35.6 °F 31.7 °F 28.4 °F 75% 30.22 in 10.0 mi WSW 4.6 mph - N/A   Overcast
8:35 AM 35.6 °F - 30.2 °F 81% 30.21 in 10.0 mi Calm Calm - N/A   Overcast
8:55 AM 35.6 °F 32.8 °F 30.2 °F 81% 30.21 in 10.0 mi West 3.5 mph - N/A   Overcast
9:15 AM 37.4 °F - 30.2 °F 75% 30.22 in 10.0 mi Calm Calm - N/A   Overcast
9:35 AM 37.4 °F - 30.2 °F 75% 30.22 in 10.0 mi Calm Calm - N/A   Overcast
9:55 AM 37.4 °F - 32.0 °F 81% 30.23 in 10.0 mi Calm Calm - N/A   Overcast
10:15 AM 37.4 °F - 32.0 °F 81% 30.22 in 10.0 mi Calm Calm - N/A   Overcast
10:35 AM 39.2 °F - 32.0 °F 75% 30.22 in 10.0 mi Calm Calm - N/A   Overcast
11:15 AM 41.0 °F - 33.8 °F 76% 30.21 in 10.0 mi Calm Calm - N/A   Overcast
11:35 AM 41.0 °F - 33.8 °F 76% 30.21 in 10.0 mi Calm Calm - N/A   Overcast
11:55 AM 41.0 °F - 32.0 °F 70% 30.21 in 10.0 mi Calm Calm - N/A   Overcast
12:15 PM 42.8 °F - 32.0 °F 66% 30.21 in 10.0 mi Calm Calm - N/A   Overcast
12:35 PM 42.8 °F - 32.0 °F 66% 30.21 in 10.0 mi Calm Calm - N/A   Overcast
12:55 PM 41.0 °F - 33.8 °F 76% 30.20 in 10.0 mi North - - N/A   Overcast
1:15 PM 41.0 °F 39.0 °F 32.0 °F 70% 30.19 in 10.0 mi NNE 3.5 mph - N/A   Overcast
1:35 PM 41.0 °F 39.0 °F 30.2 °F 65% 30.18 in 10.0 mi NE 3.5 mph - N/A   Overcast
1:55 PM 41.0 °F 39.0 °F 33.8 °F 76% 30.18 in 10.0 mi East 3.5 mph - N/A   Overcast
2:15 PM 41.0 °F 38.0 °F 32.0 °F 70% 30.18 in 10.0 mi East 4.6 mph - N/A   Overcast
2:35 PM 39.2 °F 35.9 °F 33.8 °F 81% 30.17 in 10.0 mi NE 4.6 mph - N/A   Overcast
3:35 PM 39.2 °F 35.0 °F 33.8 °F 81% 30.15 in 10.0 mi East 5.8 mph - N/A   Overcast
3:55 PM 39.2 °F - 33.8 °F 81% 30.16 in 10.0 mi Calm Calm - N/A   Overcast
4:15 PM 39.2 °F 35.9 °F 33.8 °F 81% 30.16 in 9.0 mi ENE 4.6 mph - N/A   Mostly Cloudy
4:35 PM 39.2 °F 35.9 °F 33.8 °F 81% 30.16 in 6.0 mi East 4.6 mph - N/A   Overcast
5:15 PM 39.2 °F 35.0 °F 33.8 °F 81% 30.17 in 10.0 mi ESE 5.8 mph - N/A   Overcast
5:35 PM 39.2 °F 37.0 °F 33.8 °F 81% 30.18 in 10.0 mi East 3.5 mph - N/A   Overcast
5:55 PM 37.4 °F 33.8 °F 33.8 °F 87% 30.17 in 8.0 mi East 4.6 mph - N/A   Overcast
6:15 PM 37.4 °F 34.9 °F 33.8 °F 87% 30.18 in 5.0 mi East 3.5 mph - N/A   Overcast
6:35 PM 37.4 °F 33.8 °F 33.8 °F 87% 30.17 in 9.0 mi East 4.6 mph - N/A   Overcast
6:55 PM 37.4 °F 33.8 °F 33.8 °F 87% 30.17 in 10.0 mi East 4.6 mph - N/A   Overcast
7:35 PM 37.4 °F 33.8 °F 33.8 °F 87% 30.18 in 10.0 mi ESE 4.6 mph - N/A   Overcast
7:55 PM 37.4 °F 32.8 °F 33.8 °F 87% 30.18 in 10.0 mi East 5.8 mph - N/A   Overcast
8:15 PM 37.4 °F 34.9 °F 33.8 °F 87% 30.17 in 10.0 mi ENE 3.5 mph - N/A   Overcast
8:35 PM 37.4 °F 32.8 °F 33.8 °F 87% 30.16 in 10.0 mi NE 5.8 mph - N/A   Overcast
8:55 PM 37.4 °F 33.8 °F 33.8 °F 87% 30.16 in 10.0 mi NE 4.6 mph - N/A   Overcast
9:15 PM 37.4 °F 33.8 °F 33.8 °F 87% 30.16 in 10.0 mi NNE 4.6 mph - N/A   Overcast
9:35 PM 37.4 °F 34.9 °F 33.8 °F 87% 30.15 in 10.0 mi NNE 3.5 mph - N/A   Overcast
9:55 PM 37.4 °F 33.8 °F 33.8 °F 87% 30.15 in 10.0 mi NE 4.6 mph - N/A   Overcast
10:15 PM 37.4 °F 32.8 °F 33.8 °F 87% 30.14 in 10.0 mi NE 5.8 mph - N/A   Overcast
10:35 PM 37.4 °F 33.8 °F 33.8 °F 87% 30.15 in 10.0 mi East 4.6 mph - N/A   Overcast
10:55 PM 37.4 °F 32.8 °F 33.8 °F 87% 30.14 in 10.0 mi NE 5.8 mph - N/A   Overcast
11:35 PM 37.4 °F 33.8 °F 33.8 °F 87% 30.13 in 10.0 mi NNE 4.6 mph - N/A   Overcast
11:55 PM 37.4 °F 32.8 °F 33.8 °F 87% 30.12 in 7.0 mi North 5.8 mph - N/A   Overcast